Weather History for KMLF - September, 2012

Change the Weather History Date:

Tuesday, September 25, 2012

  Actual Average Record
Temperature  
Mean Temperature 54 °F -  
Max Temperature 68 °F 76 °F 89 °F (1999)
Min Temperature 41 °F 40 °F 30 °F (2000)
Degree Days  
Heating Degree Days 10    
Growing Degree Days 4 (Base 50)    
Moisture  
Dew Point 42 °F    
Average Humidity 78    
Maximum Humidity 100    
Minimum Humidity 27    
Precipitation  
Precipitation 0.00 in - - ()
Sea Level Pressure  
Sea Level Pressure 30.01 in    
Wind  
Wind Speed 4 mph (North)    
Max Wind Speed 13 mph    
Max Gust Speed 16 mph    
Visibility 7 miles    
Events Fog    
Averages and records for this station are not official NWS values.
T = Trace of Precipitation, MM = Missing Value Source: NWS Daily Summary

Daily Weather History Graph

Daily Weather History Graph

Search for Another Location

Airport or City:

Trip Planner

Search our weather history database for the weather conditions in past years. The results will help you decide how hot, cold, wet, or windy it might be!

Date:

Astronomy

Sep. 25, 2012 Rise Set
Actual Time 7:22 AM MDT 7:23 PM MDT
Civil Twilight 6:56 AM MDT 7:49 PM MDT
Nautical Twilight 6:25 AM MDT 8:20 PM MDT
Astronomical Twilight 5:54 AM MDT 8:51 PM MDT
Moon 4:48 PM MDT (9/25) 2:51 AM MDT (9/25)
Length of Visible Light 12h 53m
Length of Day
12h 00m
Waxing Gibbous, 80% of the Moon is Illuminated
Sep 25
Waxing Gibbous
Sep 29
Full
Oct 8
Last Quarter
Oct 15
New
Oct 21
First Quarter

Hourly Weather History & Observations

Time (MDT) Temp. Windchill Dew Point Humidity Pressure Visibility Wind Dir Wind Speed Gust Speed Precip Events Conditions
12:52 AM 46.9 °F - 44.1 °F 90% 29.97 in 10.0 mi Calm Calm - N/A   Clear
1:52 AM 45.0 °F 41.8 °F 43.0 °F 93% 29.96 in 10.0 mi NNE 5.8 mph - N/A   Clear
2:52 AM 46.0 °F 43.1 °F 44.1 °F 93% 29.94 in 10.0 mi North 5.8 mph - N/A   Clear
3:16 AM 42.8 °F 39.3 °F 41.0 °F 93% 30.06 in 1.0 mi NE 5.8 mph - N/A   Mist
3:21 AM 42.8 °F 40.1 °F 41.0 °F 93% 30.06 in 0.5 mi NE 4.6 mph - N/A Fog Fog
3:54 AM 42.8 °F - 41.0 °F 93% 30.06 in 1.8 mi Calm Calm - N/A   Overcast
3:58 AM 42.8 °F - 41.0 °F 93% 30.06 in 3.0 mi Calm Calm - N/A   Mostly Cloudy
4:10 AM 42.8 °F - 41.0 °F 93% 30.06 in 10.0 mi Calm Calm - N/A   Scattered Clouds
4:30 AM 42.8 °F - 39.2 °F 87% 30.05 in 0.8 mi Calm Calm - N/A   Mist
4:52 AM 41.0 °F - 39.0 °F 93% 29.95 in 0.8 mi Calm Calm - N/A   Mist
5:03 AM 41.0 °F - 39.2 °F 93% 30.05 in 2.0 mi Calm Calm - N/A   Overcast
5:16 AM 42.8 °F 41.1 °F 41.0 °F 93% 30.05 in 3.0 mi NW 3.5 mph - N/A   Mostly Cloudy
5:52 AM 42.1 °F - 39.9 °F 92% 29.97 in 10.0 mi Calm Calm - N/A   Partly Cloudy
6:14 AM 42.8 °F 39.3 °F 39.2 °F 87% 30.05 in 10.0 mi NNW 5.8 mph - N/A   Partly Cloudy
6:45 AM 42.8 °F 40.1 °F 42.8 °F 100% 30.06 in 1.2 mi North 4.6 mph - N/A   Mostly Cloudy
6:52 AM 42.1 °F 38.4 °F 41.0 °F 96% 30.00 in 1.0 mi North 5.8 mph - N/A   Mist
6:57 AM 42.8 °F 38.6 °F 41.0 °F 93% 30.06 in 1.8 mi North 6.9 mph - N/A   Mostly Cloudy
7:05 AM 42.8 °F 38.6 °F 42.8 °F 100% 30.06 in 1.2 mi North 6.9 mph - N/A   Mostly Cloudy
7:12 AM 42.8 °F 39.3 °F 42.8 °F 100% 30.06 in 0.8 mi North 5.8 mph - N/A   Mist
7:21 AM 42.8 °F 38.6 °F 42.8 °F 100% 30.07 in 2.5 mi NNE 6.9 mph - N/A   Mostly Cloudy
7:34 AM 42.8 °F 40.1 °F 41.0 °F 93% 30.07 in 0.2 mi North 4.6 mph - N/A Fog Fog
7:52 AM 41.0 °F - 39.9 °F 96% 30.02 in 0.2 mi Calm Calm - N/A Fog Fog
8:12 AM 42.8 °F - 42.8 °F 100% 30.08 in 3.0 mi Calm Calm - N/A   Mostly Cloudy
8:20 AM 42.8 °F 41.1 °F 42.8 °F 100% 30.08 in 10.0 mi NNW 3.5 mph - N/A   Scattered Clouds
8:52 AM 46.0 °F - 45.0 °F 96% 30.02 in 10.0 mi Calm Calm - N/A   Clear
9:52 AM 52.0 °F - 48.0 °F 86% 30.02 in 10.0 mi North 3.5 mph - N/A   Clear
10:52 AM 57.0 °F - 48.0 °F 72% 30.01 in 10.0 mi Variable 4.6 mph - N/A   Clear
11:52 AM 61.0 °F - 46.9 °F 60% 29.98 in 10.0 mi North 9.2 mph - N/A   Clear
12:52 PM 63.0 °F - 43.0 °F 48% 29.97 in 10.0 mi North 8.1 mph - N/A   Clear
1:52 PM 64.9 °F - 42.1 °F 43% 29.96 in 10.0 mi NNE 6.9 mph - N/A   Scattered Clouds
2:52 PM 66.0 °F - 41.0 °F 40% 29.94 in 10.0 mi NNE 12.7 mph 16.1 mph N/A   Scattered Clouds
3:52 PM 66.9 °F - 42.1 °F 40% 29.94 in 10.0 mi North 10.4 mph - N/A   Scattered Clouds
4:52 PM 64.0 °F - 43.0 °F 46% 29.96 in 10.0 mi NNE 11.5 mph - N/A   Mostly Cloudy
5:52 PM 66.9 °F - 41.0 °F 39% 29.94 in 10.0 mi North 10.4 mph - N/A   Partly Cloudy
6:52 PM 64.0 °F - 42.1 °F 45% 29.96 in 10.0 mi North 9.2 mph - N/A   Clear
7:52 PM 57.9 °F - 43.0 °F 58% 29.98 in 10.0 mi NNW 8.1 mph - N/A   Clear
8:52 PM 54.0 °F - 44.1 °F 69% 30.00 in 10.0 mi NE 6.9 mph - N/A   Clear
9:52 PM 52.0 °F - 44.1 °F 74% 30.00 in 10.0 mi NNW 3.5 mph - N/A   Clear
10:52 PM 50.0 °F - 43.0 °F 77% 30.00 in 10.0 mi Calm Calm - N/A   Clear
11:52 PM 48.9 °F - 43.0 °F 80% 29.99 in 10.0 mi Calm Calm - N/A   Clear